CW0146 Weather Reports


Display with metric or nautical units.
time (UTC)temp
F
wind
direction
speed
MPH
gust
MPH
rain 1hr
in
rain 24hr
in
rain mn
in
humidity
%
barometer
mb
20260504223454 82 198 2.0 5.0 0.00 0.00 0.00 61 1009.0
20260504222954 83 136 3.0 6.0 0.00 0.00 0.00 59 1009.0
20260504222454 82 153 2.0 5.0 0.00 0.00 0.00 60 1009.0
20260504221953 83 189 4.0 8.0 0.00 0.00 0.00 60 1010.0
20260504221455 83 183 6.0 11.0 0.00 0.00 0.00 58 1010.0
20260504220954 83 217 2.0 8.0 0.00 0.00 0.00 58 1009.0
20260504220456 83 177 3.0 8.0 0.00 0.00 0.00 59 1009.0
20260504215954 83 183 5.0 7.0 0.00 0.00 0.00 58 1010.0
20260504215454 83 175 5.0 9.0 0.00 0.00 0.00 59 1010.0
20260504214954 83 142 3.0 7.0 0.00 0.00 0.00 59 1009.0
20260504214454 83 158 2.0 5.0 0.00 0.00 0.00 60 1009.0
20260504213954 83 113 4.0 10.0 0.00 0.00 0.00 59 1009.0
20260504213454 82 170 5.0 12.0 0.00 0.00 0.00 58 1010.0
20260504212506 82 193 4.0 8.0 0.00 0.00 0.00 60 1010.0
20260504211954 82 95 3.0 8.0 0.00 0.00 0.00 60 1010.0
20260504211454 83 193 4.0 8.0 0.00 0.00 0.00 59 1010.0
20260504210954 83 182 3.0 6.0 0.00 0.00 0.00 59 1010.0
20260504210454 82 185 6.0 10.0 0.00 0.00 0.00 59 1010.0
20260504205954 82 199 6.0 9.0 0.00 0.00 0.00 58 1010.0
20260504205454 81 185 4.0 5.0 0.00 0.00 0.00 60 1010.0
20260504204955 82 169 4.0 8.0 0.00 0.00 0.00 60 1011.0
20260504204454 82 186 4.0 6.0 0.00 0.00 0.00 59 1011.0
20260504203955 82 187 2.0 5.0 0.00 0.00 0.00 60 1011.0
20260504203454 81 179 3.0 6.0 0.00 0.00 0.00 59 1011.0
20260504202955 81 117 1.0 3.0 0.00 0.00 0.00 60 1011.0
20260504202455 82 141 3.0 7.0 0.00 0.00 0.00 59 1011.0
20260504201954 82 154 3.0 5.0 0.00 0.00 0.00 58 1011.0
20260504201454 82 187 6.0 11.0 0.00 0.00 0.00 60 1011.0
20260504200954 81 207 3.0 6.0 0.00 0.00 0.00 60 1011.0
20260504200454 82 177 5.0 8.0 0.00 0.00 0.00 59 1012.0
20260504195954 82 179 5.0 10.0 0.00 0.00 0.00 59 1012.0
20260504195454 82 184 4.0 6.0 0.00 0.00 0.00 58 1012.0
20260504194954 82 167 4.0 5.0 0.00 0.00 0.00 59 1012.0
20260504194454 81 178 4.0 7.0 0.00 0.00 0.00 60 1012.0
20260504193954 81 181 6.0 11.0 0.00 0.00 0.00 58 1012.0
20260504193454 81 150 4.0 8.0 0.00 0.00 0.00 59 1012.0
20260504192954 80 180 3.0 7.0 0.00 0.00 0.00 61 1012.0
20260504192454 80 148 2.0 5.0 0.00 0.00 0.00 60 1012.0
20260504191955 80 196 4.0 9.0 0.00 0.00 0.00 60 1012.0
20260504191455 80 196 4.0 8.0 0.00 0.00 0.00 61 1012.0
20260504190957 80 201 4.0 8.0 0.00 0.00 0.00 61 1012.0
20260504190454 80 180 4.0 8.0 0.00 0.00 0.00 61 1012.0
20260504185954 79 180 4.0 7.0 0.00 0.00 0.00 61 1012.0
20260504185454 79 170 2.0 6.0 0.00 0.00 0.00 63 1012.0
20260504184955 79 189 5.0 9.0 0.00 0.00 0.00 61 1012.0
20260504184454 78 190 4.0 8.0 0.00 0.00 0.00 62 1012.0
20260504183956 78 186 7.0 12.0 0.00 0.00 0.00 63 1012.0
20260504183454 78 186 4.0 8.0 0.00 0.00 0.00 63 1013.0
20260504182959 78 185 6.0 12.0 0.00 0.00 0.00 62 1013.0
20260504182454 78 200 6.0 11.0 0.00 0.00 0.00 63 1013.0
20260504181954 78 189 6.0 8.0 0.00 0.00 0.00 63 1013.0
20260504181455 77 175 3.0 5.0 0.00 0.00 0.00 65 1013.0
20260504180954 77 173 4.0 8.0 0.00 0.00 0.00 66 1013.0
20260504180454 77 188 4.0 9.0 0.00 0.00 0.00 64 1013.0
20260504175954 76 194 3.0 7.0 0.00 0.00 0.00 66 1013.0
20260504175454 76 185 3.0 4.0 0.00 0.00 0.00 68 1013.0
20260504174954 76 187 7.0 11.0 0.00 0.00 0.00 65 1013.0
20260504174455 76 201 4.0 8.0 0.00 0.00 0.00 66 1013.0
20260504173954 76 182 6.0 11.0 0.00 0.00 0.00 67 1014.0
20260504173454 76 159 3.0 5.0 0.00 0.00 0.00 67 1014.0
20260504172954 76 187 5.0 7.0 0.00 0.00 0.00 66 1014.0
20260504172454 76 211 4.0 8.0 0.00 0.00 0.00 66 1014.0
20260504171959 76 185 4.0 8.0 0.00 0.00 0.00 67 1014.0
20260504171454 76 176 5.0 11.0 0.00 0.00 0.00 65 1014.0
20260504170954 76 143 3.0 5.0 0.00 0.00 0.00 67 1014.0
20260504170454 76 162 6.0 10.0 0.00 0.00 0.00 66 1014.0
20260504150955 70 185 6.0 10.0 0.00 0.00 0.00 73 1014.0
20260504150454 70 181 5.0 8.0 0.00 0.00 0.00 74 1015.0
20260504140954 66 178 4.0 7.0 0.00 0.00 0.00 77 1015.0
20260504140454 66 170 3.0 6.0 0.00 0.00 0.00 78 1015.0
20260504130454 62 186 2.0 4.0 0.00 0.00 0.00 83 1015.0
20260504110454 60 148 1.0 2.0 0.00 0.00 0.00 84 1015.0
20260504100454 61 121 1.0 2.0 0.00 0.00 0.00 83 1015.0
20260504081954 63 182 2.0 3.0 0.00 0.00 0.00 79 1015.0
20260504081455 63 114 0.0 2.0 0.00 0.00 0.00 78 1016.0
20260504080954 63 174 2.0 7.0 0.00 0.00 0.00 78 1016.0
20260504080454 63 183 1.0 4.0 0.00 0.00 0.00 78 1016.0
20260504050454 65 124 1.0 2.0 0.00 0.00 0.00 68 1018.0
20260504045954 66 58 1.0 3.0 0.00 0.00 0.00 68 1017.0
20260504045454 66 145 1.0 2.0 0.00 0.00 0.00 67 1017.0
20260504044954 66 151 2.0 3.0 0.00 0.00 0.00 67 1018.0
20260504044454 66 131 2.0 6.0 0.00 0.00 0.00 66 1018.0
20260504043954 66 191 1.0 2.0 0.00 0.00 0.00 66 1018.0
20260504043454 67 209 2.0 4.0 0.00 0.00 0.00 65 1017.0
20260504042954 67 177 2.0 4.0 0.00 0.00 0.00 65 1017.0
20260504042454 67 162 2.0 5.0 0.00 0.00 0.00 64 1018.0
20260504041954 67 182 3.0 6.0 0.00 0.00 0.00 64 1018.0
20260504041454 67 169 2.0 4.0 0.00 0.00 0.00 63 1018.0
20260504040954 67 187 2.0 5.0 0.00 0.00 0.00 62 1018.0
20260504040454 68 132 2.0 4.0 0.00 0.00 0.00 61 1018.0
20260504035954 68 162 3.0 5.0 0.00 0.00 0.00 60 1018.0
20260504035454 68 79 2.0 4.0 0.00 0.00 0.00 58 1018.0
20260504034954 68 101 2.0 6.0 0.00 0.00 0.00 57 1018.0
20260504034454 68 71 1.0 3.0 0.00 0.00 0.00 57 1018.0
20260504033954 68 95 2.0 4.0 0.00 0.00 0.00 57 1018.0
20260504033454 67 88 1.0 3.0 0.00 0.00 0.00 57 1018.0
20260504032954 67 157 1.0 2.0 0.00 0.00 0.00 59 1018.0
20260504032455 67 103 1.0 4.0 0.00 0.00 0.00 59 1018.0
20260504031955 67 47 1.0 2.0 0.00 0.00 0.00 59 1018.0
20260504031454 68 23 0.0 1.0 0.00 0.00 0.00 59 1018.0
20260504030954 68 101 1.0 2.0 0.00 0.00 0.00 58 1018.0
20260504030456 68 73 1.0 2.0 0.00 0.00 0.00 58 1018.0
20260504025955 68 92 1.0 3.0 0.00 0.00 0.00 58 1018.0
20260504025454 68 92 1.0 1.0 0.00 0.00 0.00 58 1018.0
20260504024954 68 70 1.0 2.0 0.00 0.00 0.00 57 1018.0
20260504024454 68 36 0.0 1.0 0.00 0.00 0.00 57 1018.0
20260504023954 68 69 0.0 1.0 0.00 0.00 0.00 57 1018.0
20260504023454 68 111 1.0 1.0 0.00 0.00 0.00 57 1017.0
20260504022955 68 85 1.0 2.0 0.00 0.00 0.00 57 1018.0
20260504022454 69 262 0.0 1.0 0.00 0.00 0.00 57 1018.0
20260504021954 69 72 0.0 2.0 0.00 0.00 0.00 56 1018.0
20260504021454 69 102 0.0 1.0 0.00 0.00 0.00 56 1018.0
20260504020954 69 195 0.0 2.0 0.00 0.00 0.00 55 1018.0
20260504020459 70 89 0.0 1.0 0.00 0.00 0.00 55 1018.0
20260504015955 70 121 0.0 0.0 0.00 0.00 0.00 54 1017.0
20260504015454 70 65 0.0 2.0 0.00 0.00 0.00 54 1017.0
20260504014954 71 48 1.0 1.0 0.00 0.00 0.00 53 1017.0
20260504014454 71 70 1.0 2.0 0.00 0.00 0.00 51 1017.0
20260504013954 71 95 0.0 2.0 0.00 0.00 0.00 51 1017.0
20260504013454 72 75 0.0 1.0 0.00 0.00 0.00 50 1017.0
20260504012954 72 91 0.0 1.0 0.00 0.00 0.00 49 1017.0
20260504012453 72 93 1.0 2.0 0.00 0.00 0.00 49 1017.0
20260504011954 73 97 0.0 1.0 0.00 0.00 0.00 49 1017.0
20260504011454 73 100 0.0 1.0 0.00 0.00 0.00 48 1017.0
20260504010955 73 183 0.0 1.0 0.00 0.00 0.00 47 1017.0
20260504010454 73 278 0.0 1.0 0.00 0.00 0.00 47 1017.0
20260504005955 74 201 0.0 2.0 0.00 0.00 0.00 47 1017.0
20260504005454 74 102 0.0 1.0 0.00 0.00 0.00 46 1017.0
20260504004956 74 58 1.0 2.0 0.00 0.00 0.00 46 1017.0
20260504004454 75 100 1.0 2.0 0.00 0.00 0.00 45 1017.0
20260504003954 75 187 2.0 4.0 0.00 0.00 0.00 45 1017.0
20260504003454 75 182 1.0 2.0 0.00 0.00 0.00 45 1017.0
20260504002954 76 165 1.0 4.0 0.00 0.00 0.00 44 1017.0
20260504002500 76 153 1.0 2.0 0.00 0.00 0.00 44 1017.0
20260504001954 76 162 1.0 3.0 0.00 0.00 0.00 43 1017.0
20260504001455 76 177 1.0 2.0 0.00 0.00 0.00 44 1017.0
20260504000954 76 85 2.0 5.0 0.00 0.00 0.00 43 1017.0
20260504000454 76 198 1.0 4.0 0.00 0.00 0.00 43 1017.0
20260503235954 76 90 1.0 4.0 0.00 0.00 0.00 42 1018.0
20260503235454 77 167 2.0 6.0 0.00 0.00 0.00 41 1017.0
20260503234954 77 103 2.0 2.0 0.00 0.00 0.00 42 1017.0
20260503234454 77 130 2.0 4.0 0.00 0.00 0.00 41 1017.0
20260503233954 77 111 2.0 3.0 0.00 0.00 0.00 41 1017.0
20260503233455 77 82 1.0 3.0 0.00 0.00 0.00 42 1017.0
20260503232954 77 177 1.0 3.0 0.00 0.00 0.00 42 1018.0
20260503232454 77 133 2.0 4.0 0.00 0.00 0.00 41 1018.0
20260503231954 77 79 1.0 3.0 0.00 0.00 0.00 41 1018.0
20260503231454 78 180 1.0 2.0 0.00 0.00 0.00 41 1018.0
20260503230956 78 126 3.0 7.0 0.00 0.00 0.00 40 1017.0
20260503230454 79 187 2.0 4.0 0.00 0.00 0.00 40 1017.0
20260503225953 80 73 2.0 4.0 0.00 0.00 0.00 40 1017.0
20260503225454 80 175 1.0 4.0 0.00 0.00 0.00 39 1017.0
20260503224954 80 113 2.0 4.0 0.00 0.00 0.00 39 1017.0
20260503224455 80 96 2.0 6.0 0.00 0.00 0.00 40 1017.0
20260503223954 80 157 3.0 6.0 0.00 0.00 0.00 39 1018.0